Zurück zum Katalog

TERRESTAR 1

AktivKommunikationGEO
NORAD 35496·PAYLOAD·🇺🇸 United States

Gestartet Jul 1, 2009 von Guiana Space Centre

Loading…

TLE

AktuellSource: CelesTrak SupGP

Epoche: Sep 14, 2026, 06:00 UTC

1 35496C 09035A   26257.25000000  .00000040  00000+0  00000+0 0  2572
2 35496   5.2264  48.6755 0002451  97.5535 186.0057  1.00270362    18

Verfolge TERRESTAR 1 in Echtzeit mit AllMySat

Download on the App Store